Location: Newark
(48.9000°N, 0.7000°E)
Time: 20:36:39
(UTC+00:00)

ISS - Pass Details

Date: 06 October 2020
Orbit: 418 x 420 km, 51.6° (Epoch: 20 October)

Event Time Altitude Azimuth Distance (km) Brightness Sun altitude
Rises 18:19:37 0° 288° (WNW) 2,368 1.8 -9.8°
Reaches altitude 10° 18:21:54 10° 276° (W) 1,502 0.7 -10.2°
Maximum altitude 18:24:48 27° 217° (SW) 838 -1.9 -10.7°
Drops below altitude 10° 18:27:43 10° 157° (SSE) 1,495 -1.2 -11.1°
Enters shadow 18:28:46 - 150° (SSE) 1,882 -0.8 -11.3°
